Tracking 19245 objects as of 15-Aug-2018
HD Live streaming from Space Station
objects crossing your sky now

COSMOS 1158

Track COSMOS 1158 now!
10-day predictions
COSMOS 1158 is classified as:


NORAD ID: 11693
Int'l Code: 1980-012C
Perigee: 1,440.7 km
Apogee: 1,483.3 km
Inclination: 74.0 °
Period: 115.0 minutes
Semi major axis: 7833 km
RCS: 0.707 m2 (medium)
Launch date: February 11, 1980
Source: Commonwealth of Independent States (former USSR) (CIS)
Launch site: PLESETSK MISSILE AND SPACE COMPLEX (PKMTR)
aabbcc
Your satellite tracking list
Your tracking list is empty




NASA's NSSDC Master Catalog

Two Line Element Set (TLE):
1 11693U 80012C   18225.93163703 -.00000003 +00000-0 +81524-4 0  9999
2 11693 074.0203 087.7701 0027218 151.1872 313.3927 12.52304184760149
Source of the keplerian elements: AFSPC